| time (UTC) | temp F | wind direction | speed MPH | gust MPH | rain 1hr in | rain 24hr in | rain mn in | humidity % | barometer mb |
| 20260504090118 | 54 | 249 | 3.0 | 10.0 | 0.00 | 0.33 | 0.08 | 86 | 1009.9 |
| 20260504081641 | 52 | 307 | 2.0 | 10.0 | 0.00 | 0.33 | 0.08 | 89 | 1009.6 |
| 20260504050154 | 55 | 226 | 4.0 | 9.0 | 0.00 | 0.33 | 0.08 | 90 | 1006.5 |
| 20260504044602 | 55 | 231 | 3.0 | 8.0 | 0.00 | 0.33 | 0.08 | 89 | 1006.3 |
| 20260504043042 | 55 | 231 | 4.0 | 8.0 | 0.00 | 0.33 | 0.08 | 89 | 1006.3 |
| 20260504041516 | 55 | 215 | 3.0 | 8.0 | 0.00 | 0.33 | 0.08 | 89 | 1006.3 |
| 20260504040117 | 55 | 230 | 3.0 | 8.0 | 0.00 | 0.33 | 0.08 | 89 | 1006.2 |
| 20260504034618 | 55 | 232 | 6.0 | 11.0 | 0.00 | 0.33 | 0.08 | 90 | 1006.2 |
| 20260504033016 | 55 | 229 | 2.0 | 10.0 | 0.00 | 0.33 | 0.08 | 90 | 1006.3 |
| 20260504031601 | 56 | 223 | 4.0 | 9.0 | 0.00 | 0.33 | 0.08 | 90 | 1006.3 |
| 20260504030051 | 56 | 226 | 3.0 | 7.0 | 0.00 | 0.33 | 0.08 | 90 | 1006.3 |
| 20260504024538 | 56 | 220 | 5.0 | 10.0 | 0.00 | 0.33 | 0.08 | 90 | 1006.4 |
| 20260504023138 | 56 | 265 | 5.0 | 13.0 | 0.00 | 0.33 | 0.08 | 89 | 1006.4 |
| 20260504021549 | 56 | 241 | 4.0 | 13.0 | 0.00 | 0.33 | 0.08 | 90 | 1006.3 |
| 20260504020138 | 56 | 229 | 4.0 | 12.0 | 0.00 | 0.33 | 0.08 | 91 | 1006.2 |
| 20260504014542 | 56 | 212 | 3.0 | 11.0 | 0.00 | 0.33 | 0.08 | 92 | 1006.2 |
| 20260504013137 | 56 | 221 | 2.0 | 8.0 | 0.00 | 0.33 | 0.08 | 92 | 1006.2 |
| 20260504011550 | 56 | 212 | 2.0 | 5.0 | 0.00 | 0.33 | 0.08 | 92 | 1006.2 |
| 20260504010037 | 55 | 222 | 2.0 | 5.0 | 0.00 | 0.33 | 0.08 | 92 | 1006.2 |
| 20260504004532 | 55 | 221 | 2.0 | 5.0 | 0.01 | 0.33 | 0.08 | 92 | 1006.2 |
| 20260504003134 | 55 | 210 | 1.0 | 4.0 | 0.01 | 0.33 | 0.08 | 92 | 1006.2 |
| 20260504001607 | 55 | 246 | 0.0 | 3.0 | 0.01 | 0.33 | 0.08 | 92 | 1006.0 |
| 20260504000041 | 55 | 252 | 0.0 | 2.0 | 0.01 | 0.33 | 0.08 | 92 | 1006.1 |
| 20260503234646 | 55 | 250 | 0.0 | 0.0 | 0.00 | 0.32 | 0.07 | 91 | 1006.0 |
| 20260503233102 | 55 | 250 | 0.0 | 0.0 | 0.04 | 0.32 | 0.07 | 91 | 1006.1 |
| 20260503231552 | 55 | 249 | 0.0 | 2.0 | 0.06 | 0.32 | 0.07 | 91 | 1006.2 |
| 20260503230140 | 55 | 249 | 0.0 | 1.0 | 0.07 | 0.32 | 0.07 | 91 | 1006.5 |
| 20260503224557 | 55 | 249 | 0.0 | 0.0 | 0.08 | 0.32 | 0.07 | 91 | 1006.8 |
| 20260503223153 | 55 | 249 | 0.0 | 0.0 | 0.06 | 0.28 | 0.04 | 91 | 1007.0 |
| 20260503221544 | 55 | 249 | 0.0 | 1.0 | 0.05 | 0.27 | 0.02 | 90 | 1007.2 |
| 20260503220051 | 55 | 249 | 0.0 | 0.0 | 0.05 | 0.25 | 0.00 | 90 | 1007.2 |
| 20260503214512 | 55 | 249 | 0.0 | 0.0 | 0.14 | 0.24 | 0.24 | 90 | 1007.6 |
| 20260503213056 | 55 | 249 | 0.0 | 0.0 | 0.16 | 0.23 | 0.23 | 90 | 1007.7 |
| 20260503211534 | 55 | 249 | 0.0 | 1.0 | 0.16 | 0.22 | 0.22 | 89 | 1007.8 |
| 20260503210034 | 55 | 261 | 0.0 | 3.0 | 0.14 | 0.20 | 0.20 | 89 | 1008.0 |
| 20260503204501 | 55 | 23 | 0.0 | 2.0 | 0.07 | 0.09 | 0.09 | 88 | 1007.4 |
| 20260503203055 | 55 | 53 | 1.0 | 3.0 | 0.06 | 0.07 | 0.07 | 87 | 1007.5 |
| 20260503201520 | 56 | 53 | 3.0 | 6.0 | 0.06 | 0.06 | 0.06 | 86 | 1007.1 |
| 20260503200143 | 56 | 42 | 1.0 | 3.0 | 0.05 | 0.06 | 0.06 | 84 | 1007.7 |
| 20260503194545 | 57 | 265 | 0.0 | 3.0 | 0.02 | 0.02 | 0.02 | 82 | 1008.5 |
| 20260503193139 | 58 | 337 | 0.0 | 2.0 | 0.01 | 0.02 | 0.02 | 78 | 1008.1 |
| 20260503191545 | 58 | 33 | 1.0 | 4.0 | 0.00 | 0.01 | 0.01 | 75 | 1007.8 |
| 20260503190150 | 58 | 52 | 0.0 | 2.0 | 0.00 | 0.01 | 0.01 | 74 | 1007.7 |
| 20260503184551 | 59 | 38 | 0.0 | 4.0 | 0.00 | 0.01 | 0.01 | 74 | 1007.5 |
| 20260503183147 | 59 | 43 | 2.0 | 4.0 | 0.00 | 0.01 | 0.01 | 73 | 1007.5 |
| 20260503181548 | 59 | 61 | 1.0 | 3.0 | 0.00 | 0.01 | 0.01 | 73 | 1007.5 |
| 20260503180038 | 60 | 55 | 1.0 | 4.0 | 0.00 | 0.01 | 0.01 | 72 | 1007.7 |
| 20260503174527 | 60 | 50 | 3.0 | 5.0 | 0.00 | 0.01 | 0.01 | 71 | 1007.7 |
| 20260503173025 | 61 | 71 | 1.0 | 5.0 | 0.00 | 0.01 | 0.01 | 72 | 1007.9 |
| 20260503171533 | 61 | 79 | 2.0 | 4.0 | 0.00 | 0.01 | 0.01 | 71 | 1008.1 |